CHOLLIMA-1 R/B, 58401

Orbit data source: Space-Track

CHOLLIMA-1 R/B, 58401 is space debris in SSO originally from a launch on Tue, 21 Nov 2023 UTC launched from the Yunsong, Dprk (YUN). Debris objects in space refer to the collection of defunct objects orbiting the Earth. Examples of debris include non-operational satellites, rocket bodies, and fragments generated from explosions, collisions, or faulty payload assembly.

Loading next visibility...
Identifier
58401, 2023-179B
Orbit
SSO
Country
Flag of UnknownUnknown / NKOR
Related business
Manufacturer
Choson
Mission
Spacecraft
Bus & Motor
Unknown
Mass
~50 kg wet, ~50 kg dry
Launch date (UTC)
2023-11-21 (2 years ago)
Launch vehicle
Unknown
Launch site
Yunsong, Dprk (YUN)
Object type
Payload
Rocket body
Debris
Shape & HBR
Cyl, 4.0 m
Radar Cross Section
17.530 m², Large (>1 m²)

Expand to show TLE details & history
Last TLE update: 1 day ago

TLE from 1 day ago
0 CHOLLIMA-1 R/B
1 58401U 23179B   25295.29545333  .00025664  00000-0  47584-3 0  9991
2 58401  97.3267 191.5164 0018546 315.4123  44.5635 15.48765736107517
Epoch: 2025-10-22T07:05Z
TLE epoch observation values (Epoch: 2025-10-22T07:05:27.167Z)
Latitude
-0.00005°
Longitude
54.1821°
Altitude
414.493 km
Speed
7.667 km/s
True Right ascension
12h 46m 03s
True Declination
0° 00' 00"
Sunlit
Object was in daylight at epoch
Visualization orbit readout
Latitude
Unknown
Longitude
Unknown
Altitude
Unknown
Speed
Unknown
Apparent Right ascension
Unknown
Apparent Declination
Unknown
Sunlit
N/A
Visualization observer readout
Local Sidereal Time
01:48:01
Azimuth
Unknown
Elevation
Unknown
Doppler factor
Unknown
Orbital elements
Apogee altitude
429.863 km
Perigee altitude
404.657 km
Semi-major axis
6,795.397 km
Eccentricity
0.00185
Inclination
97.3267°
RAAN
191.5164°
Arg. of periapsis
315.4123°
True anomaly
44.71287°
Mean anomaly
44.5635°
Eccentric anomaly
44.63816°
Mean motion
3.87455 °/min
Orbital period
92.91 mins
BSTAR
0.00047584
Loading maneuver chart data...
Computing Atmospheric mass density...
Loading historical data...
Loading historical data...
Loading historical data...
Loading historical data...
Loading historical data...
Loading historical data...
Loading historical data...
Other satellites on launch #179 in the year 2023 (2023-11-21 UTC)

Documentation

Showing up to 5 results
|